Wetterdaten: Woche 25.11.13 - 01.12.13 (KW48)
Datum Zeit Temp. Aussen +5cm Feuchte Auss Luftdruck Regen Sonnenschein Regendauer UV Solar Windben
25.11.2013 00:00 3,8 C 2,8 C 94 % 1028,2 hPa 0,0 l/m 0,00 h 0,00 h 0,0 UV-I 0 W/m 1,0 km/h (0 Bft)
25.11.2013 01:00 3,6 C 2,5 C 94 % 1028,6 hPa 0,0 l/m 0,00 h 0,00 h 0,0 UV-I 0 W/m 0,1 km/h (0 Bft)
25.11.2013 02:00 3,3 C 2,2 C 94 % 1028,9 hPa 0,0 l/m 0,00 h 0,00 h 0,0 UV-I 0 W/m 0,0 km/h (0 Bft)
25.11.2013 03:00 3,1 C 2,2 C 94 % 1029,1 hPa 0,0 l/m 0,00 h 0,00 h 0,0 UV-I 0 W/m 0,0 km/h (0 Bft)
25.11.2013 04:00 2,9 C 1,9 C 95 % 1029,2 hPa 0,0 l/m 0,00 h 0,00 h 0,0 UV-I 0 W/m 0,0 km/h (0 Bft)
25.11.2013 05:00 2,8 C 1,9 C 95 % 1029,4 hPa 0,0 l/m 0,00 h 0,00 h 0,0 UV-I 0 W/m 0,0 km/h (0 Bft)
25.11.2013 06:00 2,8 C 1,9 C 95 % 1029,5 hPa 0,0 l/m 0,00 h 0,00 h 0,0 UV-I 0 W/m 0,0 km/h (0 Bft)
25.11.2013 07:00 2,8 C 1,8 C 96 % 1029,8 hPa 0,0 l/m 0,00 h 0,00 h 0,0 UV-I 0 W/m 0,0 km/h (0 Bft)
25.11.2013 08:00 2,7 C 1,9 C 96 % 1030,1 hPa 0,0 l/m 0,00 h 0,00 h 0,0 UV-I 12 W/m 0,0 km/h (0 Bft)
25.11.2013 09:00 3,4 C 3,1 C 96 % 1030,4 hPa 0,0 l/m 0,00 h 0,00 h 0,0 UV-I 47 W/m 1,2 km/h (1 Bft)
25.11.2013 10:00 4,6 C 4,0 C 93 % 1030,6 hPa 0,0 l/m 0,00 h 0,00 h 0,0 UV-I 78 W/m 5,0 km/h (1 Bft)
25.11.2013 11:00 5,3 C 4,7 C 90 % 1030,5 hPa 0,0 l/m 0,00 h 0,00 h 0,0 UV-I 107 W/m 6,7 km/h (2 Bft)
25.11.2013 12:00 5,9 C 5,3 C 88 % 1030,2 hPa 0,0 l/m 0,00 h 0,00 h 0,0 UV-I 120 W/m 7,9 km/h (2 Bft)
25.11.2013 13:00 6,2 C 5,6 C 86 % 1030,0 hPa 0,0 l/m 0,00 h 0,00 h 0,0 UV-I 89 W/m 8,1 km/h (2 Bft)
25.11.2013 14:00 6,3 C 5,2 C 86 % 1029,8 hPa 0,0 l/m 0,00 h 0,10 h 0,0 UV-I 61 W/m 9,7 km/h (2 Bft)
25.11.2013 15:00 5,9 C 4,9 C 89 % 1029,6 hPa 0,0 l/m 0,07 h 0,10 h 0,0 UV-I 31 W/m 3,8 km/h (1 Bft)
25.11.2013 16:00 5,7 C 4,1 C 89 % 1029,6 hPa 0,0 l/m 0,00 h 0,13 h 0,0 UV-I 11 W/m 7,6 km/h (2 Bft)
25.11.2013 17:00 4,4 C 2,1 C 88 % 1030,2 hPa 0,2 l/m 0,00 h 0,13 h 0,0 UV-I 0 W/m 5,5 km/h (1 Bft)
25.11.2013 18:00 3,7 C 1,3 C 90 % 1030,9 hPa 0,0 l/m 0,00 h 0,00 h 0,0 UV-I 0 W/m 1,7 km/h (1 Bft)
25.11.2013 19:00 2,5 C -0,2 C 90 % 1031,5 hPa 0,0 l/m 0,00 h 0,00 h 0,0 UV-I 0 W/m 0,0 km/h (0 Bft)
25.11.2013 20:00 1,0 C -1,7 C 90 % 1032,1 hPa 0,0 l/m 0,00 h 0,00 h 0,0 UV-I 0 W/m 0,0 km/h (0 Bft)
25.11.2013 21:00 -0,2 C -2,2 C 90 % 1032,7 hPa 0,0 l/m 0,00 h 0,03 h 0,0 UV-I 0 W/m 0,0 km/h (0 Bft)
25.11.2013 22:00 -1,0 C -2,5 C 91 % 1033,2 hPa 0,0 l/m 0,00 h 0,00 h 0,0 UV-I 0 W/m 0,0 km/h (0 Bft)
25.11.2013 23:00 -1,4 C -2,8 C 93 % 1033,5 hPa 0,0 l/m 0,00 h 0,00 h 0,0 UV-I 0 W/m 0,0 km/h (0 Bft)
26.11.2013 00:00 -1,7 C -2,8 C 94 % 1033,6 hPa 0,0 l/m 0,00 h 0,00 h 0,0 UV-I 0 W/m 0,0 km/h (0 Bft)
26.11.2013 01:00 -2,0 C -3,3 C 94 % 1033,5 hPa 0,0 l/m 0,00 h 0,00 h 0,0 UV-I 0 W/m 0,0 km/h (0 Bft)
26.11.2013 02:00 -2,3 C -3,3 C 95 % 1033,8 hPa 0,0 l/m 0,00 h 0,00 h 0,0 UV-I 0 W/m 0,0 km/h (0 Bft)
26.11.2013 03:00 -2,2 C -2,7 C 95 % 1033,8 hPa 0,0 l/m 0,00 h 0,00 h 0,0 UV-I 0 W/m 0,0 km/h (0 Bft)
26.11.2013 04:00 -1,5 C -1,9 C 96 % 1033,8 hPa 0,0 l/m 0,00 h 0,00 h 0,0 UV-I 0 W/m 0,0 km/h (0 Bft)
26.11.2013 05:00 -0,9 C -1,5 C 97 % 1034,1 hPa 0,0 l/m 0,00 h 0,00 h 0,0 UV-I 0 W/m 0,0 km/h (0 Bft)
26.11.2013 06:00 -0,6 C -1,1 C 97 % 1034,2 hPa 0,0 l/m 0,00 h 0,00 h 0,0 UV-I 0 W/m 0,0 km/h (0 Bft)
26.11.2013 07:00 -0,4 C -1,0 C 97 % 1034,2 hPa 0,0 l/m 0,00 h 0,00 h 0,0 UV-I 0 W/m 0,0 km/h (0 Bft)
26.11.2013 08:00 -0,2 C -0,6 C 97 % 1034,7 hPa 0,0 l/m 0,00 h 0,00 h 0,0 UV-I 9 W/m 0,0 km/h (0 Bft)
26.11.2013 09:00 0,2 C 0,2 C 97 % 1035,1 hPa 0,0 l/m 0,00 h 0,07 h 0,0 UV-I 33 W/m 0,0 km/h (0 Bft)
26.11.2013 10:00 1,2 C 1,2 C 98 % 1035,0 hPa 0,0 l/m 0,00 h 0,00 h 0,0 UV-I 66 W/m 0,5 km/h (0 Bft)
26.11.2013 11:00 2,9 C 2,5 C 95 % 1035,0 hPa 0,2 l/m 0,07 h 0,00 h 0,0 UV-I 133 W/m 1,6 km/h (1 Bft)
26.11.2013 12:00 3,7 C 3,0 C 90 % 1034,8 hPa 0,0 l/m 0,00 h 0,03 h 0,0 UV-I 79 W/m 2,0 km/h (1 Bft)
26.11.2013 13:00 3,7 C 3,0 C 92 % 1034,7 hPa 0,0 l/m 0,00 h 0,00 h 0,0 UV-I 41 W/m 0,4 km/h (0 Bft)
26.11.2013 14:00 3,9 C 3,3 C 94 % 1034,3 hPa 0,0 l/m 0,00 h 0,00 h 0,0 UV-I 48 W/m 0,1 km/h (0 Bft)
26.11.2013 15:00 4,0 C 3,3 C 95 % 1034,2 hPa 0,0 l/m 0,00 h 0,00 h 0,0 UV-I 40 W/m 0,0 km/h (0 Bft)
26.11.2013 16:00 4,0 C 3,0 C 95 % 1033,8 hPa 0,0 l/m 0,00 h 0,00 h 0,0 UV-I 12 W/m 0,0 km/h (0 Bft)
26.11.2013 17:00 3,9 C 2,8 C 95 % 1033,7 hPa 0,0 l/m 0,00 h 0,00 h 0,0 UV-I 0 W/m 0,0 km/h (0 Bft)
26.11.2013 18:00 3,8 C 2,8 C 95 % 1034,1 hPa 0,0 l/m 0,00 h 0,13 h 0,0 UV-I 0 W/m 0,0 km/h (0 Bft)
26.11.2013 19:00 3,8 C 2,8 C 95 % 1034,1 hPa 0,0 l/m 0,00 h 0,00 h 0,0 UV-I 0 W/m 0,0 km/h (0 Bft)
26.11.2013 20:00 3,9 C 2,8 C 96 % 1034,1 hPa 0,0 l/m 0,00 h 0,03 h 0,0 UV-I 0 W/m 0,1 km/h (0 Bft)
26.11.2013 21:00 3,7 C 2,1 C 96 % 1033,8 hPa 0,0 l/m 0,00 h 0,07 h 0,0 UV-I 0 W/m 0,0 km/h (0 Bft)
26.11.2013 22:00 3,1 C 1,8 C 96 % 1033,8 hPa 0,0 l/m 0,00 h 0,00 h 0,0 UV-I 0 W/m 0,0 km/h (0 Bft)
26.11.2013 23:00 3,2 C 2,2 C 96 % 1033,8 hPa 0,0 l/m 0,00 h 0,00 h 0,0 UV-I 0 W/m 0,3 km/h (0 Bft)
27.11.2013 00:00 3,2 C 2,2 C 97 % 1033,6 hPa 0,0 l/m 0,00 h 0,00 h 0,0 UV-I 0 W/m 0,7 km/h (0 Bft)
27.11.2013 01:00 3,1 C 2,2 C 97 % 1033,3 hPa 0,0 l/m 0,00 h 0,00 h 0,0 UV-I 0 W/m 2,4 km/h (1 Bft)
27.11.2013 02:00 3,1 C 2,2 C 97 % 1033,0 hPa 0,0 l/m 0,00 h 0,00 h 0,0 UV-I 0 W/m 5,1 km/h (1 Bft)
27.11.2013 03:00 3,0 C 2,2 C 97 % 1033,0 hPa 0,0 l/m 0,00 h 0,00 h 0,0 UV-I 0 W/m 3,4 km/h (1 Bft)
27.11.2013 04:00 3,0 C 2,2 C 97 % 1032,7 hPa 0,0 l/m 0,00 h 0,00 h 0,0 UV-I 0 W/m 1,3 km/h (1 Bft)
27.11.2013 05:00 3,1 C 2,2 C 97 % 1032,6 hPa 0,0 l/m 0,00 h 0,00 h 0,0 UV-I 0 W/m 0,1 km/h (0 Bft)
27.11.2013 06:00 3,0 C 2,2 C 96 % 1032,6 hPa 0,0 l/m 0,00 h 0,00 h 0,0 UV-I 0 W/m 5,1 km/h (1 Bft)
27.11.2013 07:00 2,8 C 2,1 C 95 % 1032,8 hPa 0,0 l/m 0,00 h 0,00 h 0,0 UV-I 0 W/m 3,3 km/h (1 Bft)
27.11.2013 08:00 2,6 C 1,8 C 95 % 1033,1 hPa 0,0 l/m 0,00 h 0,00 h 0,0 UV-I 18 W/m 4,3 km/h (1 Bft)
27.11.2013 09:00 2,7 C 2,3 C 95 % 1033,5 hPa 0,0 l/m 0,00 h 0,00 h 0,0 UV-I 42 W/m 6,9 km/h (2 Bft)
27.11.2013 10:00 3,4 C 3,2 C 94 % 1033,6 hPa 0,0 l/m 0,00 h 0,00 h 0,0 UV-I 77 W/m 6,1 km/h (2 Bft)
27.11.2013 11:00 4,1 C 3,8 C 92 % 1033,4 hPa 0,0 l/m 0,00 h 0,00 h 0,0 UV-I 101 W/m 12,2 km/h (2 Bft)
27.11.2013 12:00 4,8 C 4,4 C 90 % 1033,3 hPa 0,0 l/m 0,03 h 0,00 h 0,0 UV-I 122 W/m 9,1 km/h (2 Bft)
27.11.2013 13:00 5,5 C 5,0 C 88 % 1032,9 hPa 0,0 l/m 0,03 h 0,00 h 0,0 UV-I 135 W/m 7,2 km/h (2 Bft)
27.11.2013 14:00 5,7 C 5,0 C 88 % 1032,5 hPa 0,0 l/m 0,00 h 0,00 h 0,0 UV-I 87 W/m 3,9 km/h (1 Bft)
27.11.2013 15:00 5,7 C 4,6 C 88 % 1032,3 hPa 0,0 l/m 0,00 h 0,00 h 0,0 UV-I 30 W/m 4,1 km/h (1 Bft)
27.11.2013 16:00 5,4 C 4,3 C 89 % 1032,4 hPa 0,0 l/m 0,00 h 0,00 h 0,0 UV-I 15 W/m 1,9 km/h (1 Bft)
27.11.2013 17:00 5,0 C 3,9 C 90 % 1032,5 hPa 0,0 l/m 0,00 h 0,00 h 0,0 UV-I 0 W/m 3,9 km/h (1 Bft)
27.11.2013 18:00 4,8 C 3,9 C 91 % 1032,5 hPa 0,0 l/m 0,00 h 0,00 h 0,0 UV-I 0 W/m 0,0 km/h (0 Bft)
27.11.2013 19:00 4,9 C 3,9 C 93 % 1032,6 hPa 0,0 l/m 0,00 h 0,00 h 0,0 UV-I 0 W/m 0,0 km/h (0 Bft)
27.11.2013 20:00 5,1 C 4,2 C 93 % 1032,5 hPa 0,0 l/m 0,00 h 0,00 h 0,0 UV-I 0 W/m 0,4 km/h (0 Bft)
27.11.2013 21:00 5,6 C 4,4 C 94 % 1032,5 hPa 0,0 l/m 0,00 h 0,00 h 0,0 UV-I 0 W/m 0,9 km/h (0 Bft)
27.11.2013 22:00 5,8 C 4,7 C 94 % 1032,5 hPa 0,0 l/m 0,00 h 0,00 h 0,0 UV-I 0 W/m 1,3 km/h (1 Bft)
27.11.2013 23:00 5,9 C 4,9 C 93 % 1032,4 hPa 0,0 l/m 0,00 h 0,00 h 0,0 UV-I 0 W/m 2,5 km/h (1 Bft)
28.11.2013 00:00 5,8 C 4,4 C 94 % 1032,3 hPa 0,0 l/m 0,00 h 0,20 h 0,0 UV-I 0 W/m 3,2 km/h (1 Bft)
28.11.2013 01:00 5,5 C 4,2 C 95 % 1032,1 hPa 0,0 l/m 0,00 h 0,00 h 0,0 UV-I 0 W/m 4,2 km/h (1 Bft)
28.11.2013 02:00 5,4 C 4,2 C 96 % 1031,8 hPa 0,0 l/m 0,00 h 0,00 h 0,0 UV-I 0 W/m 6,3 km/h (2 Bft)
28.11.2013 03:00 5,4 C 4,4 C 97 % 1031,8 hPa 0,0 l/m 0,00 h 0,00 h 0,0 UV-I 0 W/m 5,3 km/h (1 Bft)
28.11.2013 04:00 5,4 C 4,4 C 97 % 1031,6 hPa 0,0 l/m 0,00 h 0,00 h 0,0 UV-I 0 W/m 4,5 km/h (1 Bft)
28.11.2013 05:00 5,5 C 4,4 C 98 % 1031,6 hPa 0,0 l/m 0,00 h 0,00 h 0,0 UV-I 0 W/m 3,2 km/h (1 Bft)
28.11.2013 06:00 5,5 C 4,4 C 98 % 1031,5 hPa 0,0 l/m 0,00 h 0,03 h 0,0 UV-I 0 W/m 2,7 km/h (1 Bft)
28.11.2013 07:00 5,5 C 4,4 C 98 % 1031,4 hPa 0,2 l/m 0,00 h 0,17 h 0,0 UV-I 0 W/m 3,0 km/h (1 Bft)
28.11.2013 08:00 5,6 C 4,4 C 98 % 1031,7 hPa 0,0 l/m 0,00 h 0,20 h 0,0 UV-I 6 W/m 2,3 km/h (1 Bft)
28.11.2013 09:00 5,7 C 4,8 C 98 % 1031,9 hPa 0,0 l/m 0,00 h 0,03 h 0,0 UV-I 18 W/m 2,1 km/h (1 Bft)
28.11.2013 10:00 6,1 C 5,4 C 99 % 1032,1 hPa 0,0 l/m 0,00 h 0,00 h 0,0 UV-I 40 W/m 1,4 km/h (1 Bft)
28.11.2013 11:00 6,9 C 6,2 C 99 % 1031,9 hPa 0,0 l/m 0,00 h 0,00 h 0,0 UV-I 70 W/m 2,4 km/h (1 Bft)
28.11.2013 12:00 7,8 C 7,2 C 99 % 1031,2 hPa 0,0 l/m 0,00 h 0,00 h 0,0 UV-I 91 W/m 1,5 km/h (1 Bft)
28.11.2013 13:00 8,2 C 7,2 C 99 % 1031,2 hPa 0,0 l/m 0,00 h 0,00 h 0,0 UV-I 41 W/m 2,8 km/h (1 Bft)
28.11.2013 14:00 8,2 C 6,8 C 98 % 1030,9 hPa 0,2 l/m 0,00 h 0,27 h 0,0 UV-I 21 W/m 0,3 km/h (0 Bft)
28.11.2013 15:00 8,3 C 7,1 C 98 % 1030,7 hPa 0,0 l/m 0,00 h 0,00 h 0,0 UV-I 24 W/m 0,2 km/h (0 Bft)
28.11.2013 16:00 8,3 C 6,7 C 98 % 1030,7 hPa 0,0 l/m 0,00 h 0,00 h 0,0 UV-I 9 W/m 0,3 km/h (0 Bft)
28.11.2013 17:00 8,2 C 6,8 C 98 % 1031,0 hPa 0,0 l/m 0,00 h 0,00 h 0,0 UV-I 0 W/m 5,8 km/h (2 Bft)
28.11.2013 18:00 7,8 C 5,9 C 97 % 1031,2 hPa 0,0 l/m 0,00 h 0,00 h 0,0 UV-I 0 W/m 2,1 km/h (1 Bft)
28.11.2013 19:00 7,4 C 5,6 C 93 % 1031,5 hPa 0,0 l/m 0,00 h 0,00 h 0,0 UV-I 0 W/m 2,1 km/h (1 Bft)
28.11.2013 20:00 7,2 C 5,3 C 90 % 1031,6 hPa 0,0 l/m 0,00 h 0,00 h 0,0 UV-I 0 W/m 0,1 km/h (0 Bft)
28.11.2013 21:00 6,9 C 5,1 C 89 % 1031,7 hPa 0,0 l/m 0,00 h 0,00 h 0,0 UV-I 0 W/m 0,6 km/h (0 Bft)
28.11.2013 22:00 6,8 C 5,0 C 88 % 1031,7 hPa 0,0 l/m 0,00 h 0,00 h 0,0 UV-I 0 W/m 0,1 km/h (0 Bft)
28.11.2013 23:00 6,5 C 5,0 C 90 % 1031,4 hPa 0,0 l/m 0,00 h 0,00 h 0,0 UV-I 0 W/m 0,0 km/h (0 Bft)
29.11.2013 00:00 6,3 C 5,0 C 91 % 1031,1 hPa 0,0 l/m 0,00 h 0,00 h 0,0 UV-I 0 W/m 0,0 km/h (0 Bft)
29.11.2013 01:00 6,2 C 4,8 C 92 % 1030,6 hPa 0,0 l/m 0,00 h 0,00 h 0,0 UV-I 0 W/m 0,0 km/h (0 Bft)
29.11.2013 02:00 6,1 C 4,9 C 91 % 1030,4 hPa 0,0 l/m 0,00 h 0,00 h 0,0 UV-I 0 W/m 0,0 km/h (0 Bft)
29.11.2013 03:00 6,1 C 4,5 C 91 % 1029,9 hPa 0,0 l/m 0,00 h 0,00 h 0,0 UV-I 0 W/m 0,0 km/h (0 Bft)
29.11.2013 04:00 6,0 C 4,9 C 90 % 1029,2 hPa 0,0 l/m 0,00 h 0,00 h 0,0 UV-I 0 W/m 0,2 km/h (0 Bft)
29.11.2013 05:00 5,9 C 4,6 C 90 % 1028,7 hPa 0,0 l/m 0,00 h 0,00 h 0,0 UV-I 0 W/m 0,3 km/h (0 Bft)
29.11.2013 06:00 6,0 C 5,0 C 90 % 1027,9 hPa 0,0 l/m 0,00 h 0,00 h 0,0 UV-I 0 W/m 1,5 km/h (1 Bft)
29.11.2013 07:00 6,1 C 5,0 C 92 % 1027,1 hPa 0,0 l/m 0,00 h 0,00 h 0,0 UV-I 0 W/m 2,2 km/h (1 Bft)
29.11.2013 08:00 6,0 C 5,0 C 91 % 1026,1 hPa 0,0 l/m 0,00 h 0,00 h 0,0 UV-I 7 W/m 2,1 km/h (1 Bft)
29.11.2013 09:00 6,2 C 5,2 C 92 % 1025,3 hPa 0,0 l/m 0,00 h 0,00 h 0,0 UV-I 20 W/m 4,9 km/h (1 Bft)
29.11.2013 10:00 6,7 C 5,9 C 92 % 1024,0 hPa 0,0 l/m 0,00 h 0,00 h 0,0 UV-I 55 W/m 7,8 km/h (2 Bft)
29.11.2013 11:00 7,3 C 6,5 C 90 % 1022,4 hPa 0,0 l/m 0,00 h 0,00 h 0,0 UV-I 54 W/m 12,3 km/h (3 Bft)
29.11.2013 12:00 7,6 C 6,4 C 88 % 1020,5 hPa 0,0 l/m 0,00 h 0,03 h 0,0 UV-I 27 W/m 14,5 km/h (3 Bft)
29.11.2013 13:00 7,6 C 6,4 C 91 % 1018,8 hPa 0,0 l/m 0,00 h 0,17 h 0,0 UV-I 30 W/m 19,6 km/h (3 Bft)
29.11.2013 14:00 7,8 C 6,5 C 90 % 1017,0 hPa 0,0 l/m 0,00 h 0,20 h 0,0 UV-I 27 W/m 17,1 km/h (3 Bft)
29.11.2013 15:00 7,3 C 5,6 C 94 % 1015,8 hPa 0,0 l/m 0,00 h 0,47 h 0,0 UV-I 9 W/m 17,2 km/h (3 Bft)
29.11.2013 16:00 7,2 C 5,6 C 95 % 1014,8 hPa 0,6 l/m 0,00 h 0,90 h 0,0 UV-I 6 W/m 17,2 km/h (3 Bft)
29.11.2013 17:00 6,7 C 5,0 C 96 % 1014,3 hPa 2,8 l/m 0,00 h 0,83 h 0,0 UV-I 0 W/m 12,9 km/h (3 Bft)
29.11.2013 18:00 6,0 C 4,5 C 96 % 1014,3 hPa 0,2 l/m 0,00 h 0,57 h 0,0 UV-I 0 W/m 11,2 km/h (2 Bft)
29.11.2013 19:00 5,2 C 3,4 C 96 % 1014,5 hPa 0,0 l/m 0,00 h 0,00 h 0,0 UV-I 0 W/m 5,8 km/h (2 Bft)
29.11.2013 20:00 4,4 C 2,7 C 96 % 1014,3 hPa 0,0 l/m 0,00 h 0,00 h 0,0 UV-I 0 W/m 5,2 km/h (1 Bft)
29.11.2013 21:00 4,0 C 2,6 C 96 % 1014,3 hPa 0,0 l/m 0,00 h 0,20 h 0,0 UV-I 0 W/m 5,9 km/h (2 Bft)
29.11.2013 22:00 4,2 C 2,8 C 96 % 1014,2 hPa 0,0 l/m 0,00 h 0,13 h 0,0 UV-I 0 W/m 5,2 km/h (1 Bft)
29.11.2013 23:00 3,8 C 2,3 C 96 % 1014,1 hPa 0,0 l/m 0,00 h 0,07 h 0,0 UV-I 0 W/m 6,0 km/h (2 Bft)
30.11.2013 00:00 3,8 C 2,2 C 96 % 1013,8 hPa 0,0 l/m 0,00 h 0,03 h 0,0 UV-I 0 W/m 9,7 km/h (2 Bft)
30.11.2013 01:00 3,4 C 2,2 C 95 % 1013,5 hPa 0,0 l/m 0,00 h 0,00 h 0,0 UV-I 0 W/m 7,4 km/h (2 Bft)
30.11.2013 02:00 3,4 C 2,2 C 95 % 1013,6 hPa 0,0 l/m 0,00 h 0,13 h 0,0 UV-I 0 W/m 7,1 km/h (2 Bft)
30.11.2013 03:00 3,5 C 2,2 C 96 % 1013,7 hPa 0,4 l/m 0,00 h 0,37 h 0,0 UV-I 0 W/m 10,1 km/h (2 Bft)
30.11.2013 04:00 3,6 C 2,3 C 96 % 1013,8 hPa 0,0 l/m 0,00 h 0,10 h 0,0 UV-I 0 W/m 5,0 km/h (1 Bft)
30.11.2013 05:00 3,4 C 2,2 C 97 % 1014,3 hPa 0,0 l/m 0,00 h 0,17 h 0,0 UV-I 0 W/m 4,7 km/h (1 Bft)
30.11.2013 06:00 3,4 C 2,2 C 97 % 1014,9 hPa 0,0 l/m 0,00 h 0,00 h 0,0 UV-I 0 W/m 4,5 km/h (1 Bft)
30.11.2013 07:00 3,6 C 2,6 C 97 % 1015,9 hPa 0,0 l/m 0,00 h 0,23 h 0,0 UV-I 0 W/m 3,9 km/h (1 Bft)
30.11.2013 08:00 3,7 C 2,3 C 97 % 1016,7 hPa 0,0 l/m 0,00 h 0,07 h 0,0 UV-I 16 W/m 5,1 km/h (1 Bft)
30.11.2013 09:00 4,2 C 3,5 C 98 % 1017,6 hPa 0,0 l/m 0,03 h 0,17 h 0,0 UV-I 46 W/m 3,1 km/h (1 Bft)
30.11.2013 10:00 5,3 C 4,3 C 98 % 1018,7 hPa 0,0 l/m 0,00 h 0,00 h 0,0 UV-I 64 W/m 4,7 km/h (1 Bft)
30.11.2013 11:00 6,4 C 5,0 C 96 % 1019,6 hPa 0,0 l/m 0,43 h 0,00 h 0,0 UV-I 141 W/m 9,1 km/h (2 Bft)
30.11.2013 12:00 7,6 C 6,0 C 91 % 1019,9 hPa 0,0 l/m 0,43 h 0,00 h 0,0 UV-I 163 W/m 10,7 km/h (2 Bft)
30.11.2013 13:00 8,0 C 6,7 C 88 % 1020,4 hPa 0,0 l/m 0,20 h 0,00 h 0,0 UV-I 135 W/m 8,6 km/h (2 Bft)
30.11.2013 14:00 7,9 C 6,8 C 87 % 1021,4 hPa 0,0 l/m 0,03 h 0,00 h 0,0 UV-I 56 W/m 5,1 km/h (1 Bft)
30.11.2013 15:00 7,6 C 6,2 C 88 % 1022,3 hPa 0,0 l/m 0,00 h 0,00 h 0,0 UV-I 20 W/m 2,1 km/h (1 Bft)
30.11.2013 16:00 7,4 C 5,5 C 89 % 1023,0 hPa 0,0 l/m 0,00 h 0,00 h 0,0 UV-I 6 W/m 0,0 km/h (0 Bft)
30.11.2013 17:00 6,9 C 4,5 C 91 % 1023,8 hPa 0,0 l/m 0,00 h 0,00 h 0,0 UV-I 0 W/m 0,0 km/h (0 Bft)
30.11.2013 18:00 5,9 C 3,7 C 91 % 1024,6 hPa 0,0 l/m 0,00 h 0,07 h 0,0 UV-I 0 W/m 0,0 km/h (0 Bft)
30.11.2013 19:00 5,6 C 4,4 C 93 % 1025,1 hPa 0,2 l/m 0,00 h 0,17 h 0,0 UV-I 0 W/m 0,0 km/h (0 Bft)
30.11.2013 20:00 5,3 C 3,2 C 94 % 1025,7 hPa 0,0 l/m 0,00 h 0,00 h 0,0 UV-I 0 W/m 0,0 km/h (0 Bft)
30.11.2013 21:00 4,8 C 3,5 C 94 % 1026,4 hPa 0,0 l/m 0,00 h 0,00 h 0,0 UV-I 0 W/m 0,0 km/h (0 Bft)
30.11.2013 22:00 4,5 C 2,1 C 95 % 1026,9 hPa 0,0 l/m 0,00 h 0,00 h 0,0 UV-I 0 W/m 0,0 km/h (0 Bft)
30.11.2013 23:00 3,8 C 2,1 C 95 % 1027,1 hPa 0,0 l/m 0,00 h 0,00 h 0,0 UV-I 0 W/m 0,2 km/h (0 Bft)
01.12.2013 00:00 3,9 C 3,1 C 96 % 1027,3 hPa 0,0 l/m 0,00 h 0,00 h 0,0 UV-I 0 W/m 0,1 km/h (0 Bft)
01.12.2013 01:00 4,0 C 3,1 C 96 % 1027,6 hPa 0,0 l/m 0,00 h 0,07 h 0,0 UV-I 0 W/m 0,0 km/h (0 Bft)
01.12.2013 02:00 4,3 C 3,3 C 97 % 1027,6 hPa 0,0 l/m 0,00 h 0,00 h 0,0 UV-I 0 W/m 0,0 km/h (0 Bft)
01.12.2013 03:00 4,4 C 3,0 C 97 % 1027,8 hPa 0,0 l/m 0,00 h 0,00 h 0,0 UV-I 0 W/m 0,0 km/h (0 Bft)
01.12.2013 04:00 4,1 C 2,8 C 97 % 1027,9 hPa 0,0 l/m 0,00 h 0,00 h 0,0 UV-I 0 W/m 0,2 km/h (0 Bft)
01.12.2013 05:00 3,8 C 2,4 C 97 % 1028,0 hPa 0,0 l/m 0,00 h 0,00 h 0,0 UV-I 0 W/m 0,0 km/h (0 Bft)
01.12.2013 06:00 3,3 C 2,1 C 97 % 1028,3 hPa 0,0 l/m 0,00 h 0,00 h 0,0 UV-I 0 W/m 0,2 km/h (0 Bft)
01.12.2013 07:00 3,2 C 2,2 C 97 % 1028,4 hPa 0,0 l/m 0,00 h 0,00 h 0,0 UV-I 0 W/m 0,4 km/h (0 Bft)
01.12.2013 08:00 3,3 C 2,6 C 98 % 1029,3 hPa 0,0 l/m 0,00 h 0,00 h 0,0 UV-I 14 W/m 0,1 km/h (0 Bft)
01.12.2013 09:00 3,8 C 3,2 C 98 % 1029,6 hPa 0,0 l/m 0,00 h 0,03 h 0,0 UV-I 28 W/m 1,0 km/h (0 Bft)
01.12.2013 10:00 4,8 C 4,2 C 98 % 1029,7 hPa 0,0 l/m 0,00 h 0,00 h 0,0 UV-I 68 W/m 1,8 km/h (1 Bft)
01.12.2013 11:00 5,9 C 5,0 C 97 % 1030,1 hPa 0,0 l/m 0,30 h 0,00 h 0,0 UV-I 132 W/m 3,4 km/h (1 Bft)
01.12.2013 12:00 7,2 C 5,9 C 93 % 1029,7 hPa 0,0 l/m 0,77 h 0,00 h 0,0 UV-I 189 W/m 4,7 km/h (1 Bft)
01.12.2013 13:00 7,4 C 6,2 C 91 % 1029,7 hPa 0,0 l/m 0,07 h 0,00 h 0,0 UV-I 96 W/m 2,6 km/h (1 Bft)
01.12.2013 14:00 7,0 C 5,7 C 93 % 1029,5 hPa 0,0 l/m 0,33 h 0,00 h 0,0 UV-I 95 W/m 1,4 km/h (1 Bft)
01.12.2013 15:00 6,7 C 5,1 C 93 % 1029,6 hPa 0,0 l/m 0,07 h 0,00 h 0,0 UV-I 37 W/m 0,4 km/h (0 Bft)
01.12.2013 16:00 6,5 C 4,9 C 95 % 1029,6 hPa 0,0 l/m 0,00 h 0,00 h 0,0 UV-I 13 W/m 0,1 km/h (0 Bft)
01.12.2013 17:00 6,5 C 5,0 C 94 % 1029,9 hPa 0,0 l/m 0,00 h 0,00 h 0,0 UV-I 0 W/m 0,4 km/h (0 Bft)
01.12.2013 18:00 6,5 C 4,8 C 93 % 1030,3 hPa 0,0 l/m 0,00 h 0,00 h 0,0 UV-I 0 W/m 0,0 km/h (0 Bft)
01.12.2013 19:00 6,4 C 5,0 C 93 % 1030,6 hPa 0,0 l/m 0,00 h 0,03 h 0,0 UV-I 0 W/m 0,0 km/h (0 Bft)
01.12.2013 20:00 6,5 C 5,0 C 94 % 1030,7 hPa 0,0 l/m 0,00 h 0,00 h 0,0 UV-I 0 W/m 0,4 km/h (0 Bft)
01.12.2013 21:00 6,6 C 5,0 C 94 % 1031,0 hPa 0,0 l/m 0,00 h 0,00 h 0,0 UV-I 0 W/m 0,0 km/h (0 Bft)
01.12.2013 22:00 6,5 C 5,0 C 95 % 1031,4 hPa 0,0 l/m 0,00 h 0,00 h 0,0 UV-I 0 W/m 0,0 km/h (0 Bft)
01.12.2013 23:00 6,6 C 5,3 C 96 % 1031,6 hPa 0,0 l/m 0,00 h 0,00 h 0,0 UV-I 0 W/m 0,6 km/h (0 Bft)
Min-Datum _ 26.11.13 26.11.13 25.11.13 30.11.13 - - - - - 25.11.13
_ Min-Zeit 02:54 00:56 13:50 02:40 - - - - - 00:00
Minimum _ -2,5 C -3,3 C 85 % 1013,4 hPa - - - - - 0,0 km/h (0 Bft)
Max-Datum _ 28.11.13 28.11.13 26.11.13 26.11.13 29.11.13 25.11.13 25.11.13 25.11.13 30.11.13 29.11.13
_ Max-Zeit 13:12 13:08 10:44 09:32 17:28 15:50 14:22 00:00 12:22 17:28
Maximum _ 8,3 C 7,8 C 100 % 1035,4 hPa 2,8 l/m 0,03 h 0,03 h 0,0 UV-I 348 W/m 38,6 km/h
W (5 Bft)
Durchschnitt _ 4,6 C 3,5 C 94 % 1028,5 hPa #5,0 l/m #2:52 h #6:56 h 0,0 UV-I 56 W/m 2,9 km/h (1 Bft)
© 2013 W. Hausmann